Regional Weather Roundup
Issued by NWS

Home | Current Version | Previous Version | Graphics & Text | Print | Product List | Glossary On
Versions: 1 2 3 4 5 6 7 8 9 10 11 12 13 14 15 16 17 18 19 20 21 22 23 24 25 26 27 28 29 30 31 32 33 34 35 36 37 38 39 40 41 42 43 44 45 46 47 48 49 50
000
ASUS43 KLSX 180359
RWRMO

WEATHER SUMMARY FOR MISSOURI
NATIONAL WEATHER SERVICE SPRINGFIELD MO
1000 PM CST WED DEC 17 2014

NOTE: "FAIR" INDICATES FEW OR NO CLOUDS BELOW 12,000 FEET WITH NO
       SIGNIFICANT WEATHER AND/OR OBSTRUCTIONS TO VISIBILITY.
       CURRENT SKY AND/OR WEATHER CONDITIONS ARE NOT AVAILABLE FOR
       CHILLICOTHE AND FARMINGTON.

MOZ001>031-035>038-043-044-053-054-180500-
...NORTHERN AND WESTERN MISSOURI...

CITY           SKY/WX    TMP DP  RH WIND       PRES   REMARKS
KANSAS CTY INT CLOUDY    30  22  72 E7        30.24F WCI  23
KANSAS C DTWN  CLOUDY    31  22  69 NE8       30.24F WCI  23
LEE`S SUMMIT   CLOUDY    29  23  78 E8        30.23F WCI  21
ST JOSEPH      CLOUDY    30  22  72 CALM      30.28S
CHILLICOTHE      N/A     30  21  69 NE5       30.29F WCI  25
KIRKSVILLE     CLOUDY    27  23  85 S3        30.31R

$$
MOZ066>068-077>081-088>096-101>105-180500-
...SOUTHWEST MISSOURI...

CITY           SKY/WX    TMP DP  RH WIND       PRES   REMARKS
SPRINGFIELD    LGT RAIN  33  32  96 SE7       30.20F FOG     WCI  27
JOPLIN         LGT RAIN  33  32  96 NE5       30.21F FOG     WCI  29

$$
MOZ032>034-039>042-045>050-055>058-069>072-180500-
...CENTRAL MISSOURI...

CITY           SKY/WX    TMP DP  RH WIND       PRES   REMARKS
COLUMBIA       CLOUDY    32  26  78 E7        30.25F WCI  26
JEFFERSON CITY CLOUDY    34  25  69 E5        30.28F WCI  30
ROLLA          CLOUDY    33  24  69 CALM      30.24S
SEDALIA        CLOUDY    32  24  72 NE5       30.26S WCI  27
WHITEMAN AFB   CLOUDY    31  24  75 NE3       30.26S
OSAGE BEACH    CLOUDY    32  25  74 CALM      30.26R

$$
MOZ051-052-059>065-180500-
...EAST CENTRAL MISSOURI...

CITY           SKY/WX    TMP DP  RH WIND       PRES   REMARKS
ST LOUIS INTL  CLOUDY    32  24  72 NE6       30.31R WCI  26
SPIRIT OF STL  CLOUDY   N/A N/A N/A NE7       30.30R
ST CHARLES     CLOUDY    29  24  82 NE5       30.32R WCI  24

$$
MOZ072>076-082>087-097>100-106>115-180500-
...SOUTH CENTRAL AND SOUTHEAST MISSOURI...

CITY           SKY/WX    TMP DP  RH WIND       PRES   REMARKS
CAPE GIRARDEAU CLOUDY    38  28  67 E3        30.29R
FARMINGTON     CLOUDY    36  27  69 CALM      30.28S
POPLAR BLUFF   LGT RAIN  35  30  82 NW5       30.29R
WEST PLAINS    LGT RAIN  34  32  92 CALM      30.25F FOG

$$



USA.gov is the U.S. government's official web portal to all federal, state and local government web resources and services.